Location: Kelshall
(52.0000°N, 0.0500°W)
Time: 22:08:53
(UTC+00:00)

USA 234 - Pass Details

Date: 18 September 2020
Orbit: 1102 x 1106 km, 123.0° (Epoch: 16 October)

Event Time Altitude Azimuth Distance (km) Brightness Sun altitude
Rises 23:43:26 0° 79° (E) 3,922 6.2 -36.6°
Reaches altitude 10° 23:45:57 10° 75° (ENE) 2,964 5.6 -36.6°
Enters shadow 23:50:38 45° 48° (NE) 1,461 4.0 -36.6°
Exits shadow 23:54:28 41° 304° (NW) 1,556 4.1 -36.6°
Drops below altitude 10° 23:58:43 10° 283° (WNW) 2,966 5.6 -36.6°
Sets 00:01:14 0° 279° (W) 3,925 6.2 -36.6°
